Location: Unspecified
(47.9110°N, 14.3980°E)
Time: 05:25:51
(UTC+00:00)

Daily predictions for brighter satellites

Satellite Brightness Start Highest point End
(mag) Time Altitude Azimuth Time Altitude Azimuth Time Altitude Azimuth
ATLAS 3B R/B 4.3 02:58:01 27° N 02:59:05 28° NNE 03:05:37 10° ENE
Cosmos 2360 Rocket 3.4 03:08:43 37° ENE 03:08:43 37° ENE 03:13:40 10° ESE
Cosmos 2219 Rocket 3.7 03:21:49 28° NNE 03:23:10 31° NE 03:28:08 10° ESE
Cosmos 2333 Rocket 2.7 03:26:02 59° ESE 03:26:02 59° ESE 03:30:55 10° SE
Cosmos 2322 Rocket 2.5 03:34:40 61° NE 03:34:54 61° ENE 03:40:30 10° SE
Cosmos 2026 Rocket 4.4 03:31:10 10° S 03:37:04 58° E 03:43:05 10° NNE
SeaSat 1 4.1 03:44:28 10° NNE 03:46:19 22° NNE 03:46:19 22° NNE
NOSS 3-1 (A) 3.9 03:49:26 58° NW 03:51:11 80° SW 04:00:04 10° SSE
IRS-1D 4.1 03:50:35 10° NNE 03:55:32 54° E 04:00:34 10° S
Meteor 2-20 4.3 03:56:35 34° N 03:59:29 87° W 04:05:33 10° S
Cosmos 2333 4.4 03:57:49 43° N 03:59:38 68° ENE 04:05:17 10° SE
Cosmos 1428 Rocket 4.4 04:02:31 55° SW 04:03:39 64° WNW 04:09:56 10° N
USA 234 3.7 03:57:48 10° ENE 04:03:55 44° N 04:05:00 40° NW
Celestis-02/Orion 38 4.5 03:59:04 10° NNE 04:04:12 83° ESE 04:06:05 40° SSW
SL-16 R/B 2.7 04:06:45 42° SSW 04:06:45 42° SSW 04:10:55 10° S
Cosmos 2082 Rocket 3.7 04:09:09 21° N 04:09:09 21° N 04:11:31 10° NNE
Nadezhda 4 Rocket 4.5 04:09:42 41° NNW 04:09:42 41° NNW 04:14:06 10° N
Cosmos 1092 Rocket 3.9 04:03:28 10° S 04:09:44 88° E 04:15:59 10° N
COSMOS 2406 3.8 04:13:45 38° NNW 04:13:45 38° NNW 04:17:57 10° NNE
COSMOS 2428 4.3 04:12:20 14° N 04:16:30 30° NE 04:21:29 10° ESE
Meteor 2-2 Rocket 4.1 04:15:26 27° NNW 04:18:40 78° W 04:24:29 10° S
Cosmos 2221 4.0 04:15:17 10° N 04:19:05 33° ENE 04:22:49 10° SE
Meteor 2-3 Rocket 3.7 04:19:34 51° W 04:20:09 54° WNW 04:25:43 10° N
Meteor 2-20 Rocket 4.1 04:15:41 16° N 04:20:23 84° W 04:26:06 10° S
Helios 1A Rocket 2.9 04:18:30 10° SSE 04:21:43 59° E 04:21:43 59° E
Cosmos 1814 Rocket 4.0 04:17:14 10° SSW 04:22:29 85° ESE 04:27:50 10° NNE
Cosmos 2195 Rocket 4.5 04:16:23 10° SSW 04:22:33 58° WNW 04:28:50 10° N
Meteor 1-26 Rocket 4.1 04:23:29 31° NNW 04:26:09 66° W 04:31:50 10° S
Cosmos 158 Rocket 4.0 04:23:24 10° SSW 04:28:41 82° ESE 04:33:55 10° NNE
Cosmos 2058 Rocket 3.3 04:29:30 49° SW 04:29:30 49° SW 04:33:06 10° S
Cosmos 2278 4.3 04:31:40 36° WSW 04:31:40 36° WSW 04:36:26 10° S
Cosmos 1437 Rocket 4.1 04:31:38 14° NNE 04:34:11 33° ENE 04:37:23 10° SE
SKYMED 2 3.6 04:31:00 10° S 04:35:15 54° W 04:35:30 53° W
SL-4 R/B 2.5 04:45:23 31° SSW 04:45:23 31° SSW 04:47:57 10° SSE
Cosmos-2242 3.6 04:46:45 34° WSW 04:46:45 34° WSW 04:49:53 10° SSW
IRIDIUM 114 4.3 04:41:32 10° S 04:46:45 87° E 04:52:00 10° N
COSMO-SKYMED 1 2.5 04:46:37 10° S 04:50:38 53° W 04:52:14 32° NW
CZ-4 R/B 3.8 04:46:37 10° N 04:51:09 55° WNW 04:55:39 10° SSW
ATLAS 3B R/B 3.4 04:45:15 17° NW 04:51:32 60° NE 04:58:58 10° ESE
Cosmos 2360 Rocket 2.6 04:50:30 30° WNW 04:52:31 42° WSW 04:57:44 10° S
RUBIN 8/PSLV 4.4 04:49:53 10° NNE 04:54:12 80° WNW 04:58:27 10° SSW
IRIDIUM 103 4.2 04:50:42 10° S 04:55:55 79° W 05:01:11 10° N
Cosmos 1758 Rocket 3.4 04:51:36 10° SSW 04:56:00 74° W 05:00:23 10° N
BREEZE M DEB (TANK) 2.6 04:56:02 25° SSW 04:57:09 45° SSE 05:01:06 10° ENE
KORONAS-FOTON 4.2 04:53:57 10° N 04:57:12 52° ENE 05:00:29 10° SSE
Cosmos 1743 2.1 04:59:38 10° SSW 05:02:51 71° W 05:06:06 10° N
BREEZE-M DEB (TANK) 4.3 04:49:27 17° W 05:05:08 81° N 05:10:02 10° E
Cosmos 2237 Rocket 3.7 05:02:03 10° NNW 05:07:02 31° NE 05:11:59 10° ESE
Thor Agena Rocket 4.5 05:02:18 10° NNE 05:07:12 49° E 05:12:03 10° S
Cosmos 2219 Rocket 2.3 05:03:33 20° NW 05:07:22 53° WSW 05:12:47 10° S
Cosmos 2333 Rocket 3.4 05:08:06 21° W 05:08:56 22° W 05:13:14 10° SSW
Cosmos 1833 4.2 05:03:56 10° SW 05:09:31 60° WNW 05:15:11 10° NNE
SMAP 4.0 05:06:49 10° NNE 05:11:23 51° E 05:15:54 10° S
IRIDIUM 106 4.4 05:09:10 10° SSW 05:14:17 56° W 05:19:26 10° N
Cosmos 1626 Rocket 4.0 05:12:54 10° SW 05:17:01 39° WNW 05:21:09 10° N
Cosmos 1125 Rocket 3.5 05:13:24 13° NNW 05:18:06 61° WSW 05:23:13 10° S
Cosmos 2322 Rocket 3.3 05:16:30 20° WNW 05:18:29 24° WSW 05:22:54 10° SSW
Cosmos 1238 Rocket 2.7 05:16:44 10° N 05:19:32 53° E 05:22:26 10° SSE
Cosmos 44 3.8 05:15:55 10° SSW 05:20:25 62° ESE 05:25:16 10° NE
Cosmos 1707 2.0 05:18:32 12° NNW 05:21:23 71° W 05:24:28 10° S
SeaSat 1 4.2 05:23:28 10° N 05:25:40 13° NW 05:25:57 13° NW
CZ-2D R/B 3.8 05:24:16 10° NNE 05:27:22 49° E 05:30:26 10° S
Orbus 7S? 3.5 05:26:17 22° W 05:27:25 32° SW 05:30:09 10° SSE
ATLAS 2AS CENTAUR R/B 2.7 05:20:26 10° SW 05:27:29 76° NW 05:34:22 10° NE
ISS -2.0 05:26:30 10° SSW 05:29:35 34° SE 05:32:41 10° ENE
Cosmos 1174 4.4 05:25:09 13° NW 05:30:11 71° WSW 05:34:42 10° SSE
Cosmos 405 Rocket 3.9 05:31:43 17° NW 05:31:43 17° NW 05:33:06 10° NNW
Cosmos 2298 Rocket 4.4 05:26:22 10° NNW 05:31:40 67° ENE 05:36:56 10° SSE
IRS-1D 4.5 05:30:22 10° N 05:34:21 24° WNW 05:38:22 10° WSW
Cosmos 2322 3.7 05:29:27 10° NNW 05:35:07 76° WSW 05:40:46 10° SSE
NOSS 0 Rocket 4.1 05:29:36 10° NNW 05:35:51 77° ENE 05:42:06 10° SSE
Cosmos 2151 3.2 05:32:32 10° SSW 05:36:27 44° WNW 05:40:25 10° N
Meteor 1-25 Rocket 4.4 05:31:36 10° S 05:37:23 87° E 05:43:15 10° NNE
Cosmos 1842 Rocket 4.5 05:36:05 10° N 05:40:17 50° ENE 05:44:29 10° SSE
SJ-12 4.1 05:37:28 10° NNE 05:41:18 69° ESE 05:45:06 10° S
Cosmos 2315 Rocket 4.0 05:38:51 10° NNW 05:45:12 75° W 05:51:28 10° S
USA 234 3.9 05:40:04 10° ENE 05:46:10 43° N 05:52:16 10° WNW
Cosmos 1812 Rocket 4.4 05:46:50 10° NNW 05:50:33 29° W 05:54:18 10° SSW
Cosmos 1484 Rocket 3.5 05:48:12 10° NNW 05:50:56 23° WNW 05:53:39 10° WSW
S3M 4.2 05:47:21 10° NNW 05:53:17 51° W 05:59:08 10° SSW
Cosmos 2221 3.6 05:52:39 10° NW 05:55:57 23° W 05:59:15 10° SW
Cosmos 1602 Rocket 4.4 05:52:52 10° SW 05:56:45 29° WNW 06:00:39 10° N
CORIOLIS 4.1 05:51:47 10° N 05:57:09 68° WNW 06:02:31 10° SSW
ARIANE 5 R/B 2.6 05:52:25 10° NNE 05:57:40 89° W 06:02:53 10° SSW
USA 290 2.2 05:56:05 10° SSW 05:59:17 89° SSE 06:02:32 10° NNE
COSMOS 2428 2.9 05:55:29 10° NW 06:01:03 56° WSW 06:06:36 10° S
Cosmos 1655 Rocket 4.0 05:55:05 10° SSW 06:01:26 80° W 06:07:45 10° N
YAOGAN 11 4.3 05:59:53 10° SSE 06:04:11 73° ENE 06:08:27 10° N
IRS-1C 4.1 06:00:34 10° NNE 06:05:55 82° WNW 06:11:14 10° SSW
Okean 1-7 Rocket 4.3 06:03:03 10° SW 06:07:07 33° WNW 06:11:10 10° N
Cosmos 1437 Rocket 4.1 06:06:34 10° NW 06:08:47 16° W 06:11:01 10° SW
USA 229 4.2 06:01:57 10° NW 06:09:18 61° WSW 06:17:20 10° SSE
USA 229 DEB 4.2 06:02:03 10° NW 06:09:23 61° WSW 06:17:25 10° SSE
